[ ตารางข้อมูล ] [ Min-Max ] [ วันนี้2 ] [ วันนี้4 ] [ เทียบ-A 3วัน ] [ เทียบ-B 4วัน ]   

วันนี้2   [ ◀ ช่วงเก่ากว่า ] [ ช่วงที่ 42 ] [ ช่วงใหม่กว่า ▶ ] [ ล่าสุด ]    [ 3 ชั่วโมง ] [ 6 ชั่วโมง ] [ 12 ชั่วโมง ] [ 24 ชั่วโมง ]   วันนี้2

อุณภูมิในตู้ Knockdown4529  ราย 6 ชั่วโมง  ที่วัดได้ ในช่วงวันเวลา 22/08/2026 (08:56) ถึง 22/08/2026 (14:56) 
ความชื้นในตู้ Knockdown4529  ราย 6 ชั่วโมง  ที่วัดได้ ในช่วงวันเวลา 22/08/2026 (08:56) ถึง 22/08/2026 (14:56) 
การใช้ไฟฟ้าในตู้ Knockdown4529  ราย 6 ชั่วโมง  ที่วัดได้ ในช่วงวันเวลา 22/08/2026 (08:56) ถึง 22/08/2026 (14:56) 

  DS18B20SHTC3PZEM-004TWiFi 
IDDate d/m/Y & Timedata1
สูง
data2
ต่ำ
data3
นอก
temp
pcb
hum
pcb
VoltAmpWattrssiTime
 14986  22/08/2026 14:52:18  35.5  33.8  36.2  36.3  61.4  228.4  0.04  4.5  -78  14:52 
 14985  22/08/2026 14:47:34  35.5  33.8  35.6  36.3  61.4  229.0  0.04  4.5  -79  14:47 
 14984  22/08/2026 14:42:51  35.5  33.8  35.7  36.3  61.2  229.2  0.04  4.6  -76  14:42 
 14983  22/08/2026 14:38:07  35.5  33.8  35.7  36.3  61.2  228.9  0.04  4.5  -78  14:38 
 14982  22/08/2026 14:33:24  35.5  33.8  35.8  36.2  61.2  228.3  0.04  4.5  -80  14:33 
 14981  22/08/2026 14:28:40  35.4  33.7  35.3  36.1  61.1  228.6  0.04  4.5  -77  14:28 
 14980  22/08/2026 14:23:57  35.4  33.6  35.9  36.2  61.1  229.8  0.04  4.5  -76  14:23 
 14979  22/08/2026 14:19:14  35.4  33.6  35.9  36.2  61.2  229.9  0.04  4.5  -76  14:19 
 14978  22/08/2026 14:14:28  35.4  33.6  35.5  36.1  61.1  231.2  0.04  4.5  -78  14:14 
 14977  22/08/2026 14:09:44  35.4  33.6  35.7  36.0  61.0  230.2  0.04  4.6  -78  14:09 
 14976  22/08/2026 14:05:01  35.4  33.5  35.7  36.1  61.2  230.3  0.04  4.5  -79  14:05 
 14975  22/08/2026 14:00:17  35.4  33.5  36.0  36.1  61.1  231.8  0.04  4.6  -77  14:00 
 14974  22/08/2026 13:55:33  35.3  33.4  35.7  36.0  61.3  230.8  0.04  4.6  -79  13:55 
 14973  22/08/2026 13:50:50  35.2  33.4  36.0  35.9  61.1  231.1  0.04  4.6  -75  13:50 
 14972  22/08/2026 13:46:06  35.2  33.4  35.5  35.8  61.0  231.6  0.04  4.5  -80  13:46 
 14971  22/08/2026 13:41:22  35.2  33.3  35.3  36.1  61.1  230.9  0.04  4.5  -77  13:41 
 14970  22/08/2026 13:36:38  35.2  33.2  35.5  35.7  61.2  230.9  0.04  4.5  -80  13:36 
 14969  22/08/2026 13:31:55  35.2  33.2  35.0  35.8  61.1  231.6  0.04  4.5  -80  13:31 
 14968  22/08/2026 13:27:11  35.2  33.2  35.4  35.9  61.1  231.1  0.04  4.6  -79  13:27 
 14967  22/08/2026 13:22:27  35.1  33.1  35.2  35.8  61.0  231.5  0.04  4.6  -75  13:22 
 14966  22/08/2026 13:17:43  35.1  33.1  35.2  36.0  61.2  231.5  0.04  4.5  -77  13:17 
 14965  22/08/2026 13:13:00  35.1  33.1  35.4  35.7  61.1  231.0  0.04  4.5  -80  13:13 
 14964  22/08/2026 13:08:16  35.1  33.0  35.6  35.6  61.0  230.8  0.04  4.6  -81  13:08 
 14963  22/08/2026 13:03:33  35.0  32.9  35.7  35.8  61.1  231.6  0.04  4.5  -81  13:03 

Data every 5 minute.


ใช้เวลาประมวลผล 0.06590 วินาที